Grosse Ile, MI

4:31 PM EST on November 22, 2017 (GMT -0500)
Grosse Ile Municipal

Weather History for KONZ - September, 2012

Change the Weather History Date:

Wednesday, September 19, 2012

  Actual Average (KDTW) Record (KDTW)
Temperature  
Mean Temperature 55 °F -  
Max Temperature 66 °F 74 °F 93 °F (1955)
Min Temperature 44 °F 53 °F 38 °F (1982)
Degree Days  
Heating Degree Days 10    
Growing Degree Days 5 (Base 50)    
Moisture  
Dew Point 41 °F    
Average Humidity 59    
Maximum Humidity 87    
Minimum Humidity 37    
Precipitation  
Precipitation 0.00 in - - ()
Sea Level Pressure  
Sea Level Pressure 30.05 in    
Wind  
Wind Speed 8 mph (SSW)    
Max Wind Speed 25 mph    
Max Gust Speed 31 mph    
Visibility 10 miles    
Events      
Averages and records for this station are not official NWS values.
T = Trace of Precipitation, MM = Missing Value Source: NWS Daily Summary

Daily Weather History Graph

Daily Weather History Graph

Search for Another Location

Airport or City:

Trip Planner

Search our weather history database for the weather conditions in past years. The results will help you decide how hot, cold, wet, or windy it might be!

Date:

Astronomy

Sep. 19, 2012 Rise Set
Actual Time 7:17 AM EDT 7:34 PM EDT
Civil Twilight 6:49 AM EDT 8:02 PM EDT
Nautical Twilight 6:16 AM EDT 8:35 PM EDT
Astronomical Twilight 5:42 AM EDT 9:08 PM EDT
Moon 11:31 AM EDT (9/19) 9:37 PM EDT (9/19)
Length of Visible Light 13h 12m
Length of Day
12h 16m
Waxing Crescent, 17% of the Moon is Illuminated
Sep 19
Waxing Crescent
Sep 22
First Quarter
Sep 29
Full
Oct 8
Last Quarter
Oct 15
New

Hourly Weather History & Observations

Time (EDT) Temp. Windchill Dew Point Humidity Pressure Visibility Wind Dir Wind Speed Gust Speed Precip Events Conditions
12:34 AM 50.0 °F - 37.4 °F 62% 29.97 in 10.0 mi WNW 5.8 mph - N/A   Clear
12:54 AM 48.2 °F - 39.2 °F 71% 29.98 in 10.0 mi WNW 8.1 mph - N/A   Clear
1:15 AM 48.2 °F - 39.2 °F 71% 29.98 in 10.0 mi WNW 4.6 mph - N/A   Clear
1:34 AM 48.2 °F - 39.2 °F 71% 29.99 in 10.0 mi West 4.6 mph - N/A   Clear
1:54 AM 48.2 °F - 39.2 °F 71% 29.99 in 10.0 mi Calm Calm - N/A   Clear
2:15 AM 46.4 °F 44.3 °F 39.2 °F 76% 30.00 in 10.0 mi West 4.6 mph - N/A   Clear
2:34 AM 46.4 °F 44.3 °F 39.2 °F 76% 30.00 in 10.0 mi WSW 4.6 mph - N/A   Clear
2:54 AM 46.4 °F 45.2 °F 39.2 °F 76% 30.00 in 10.0 mi West 3.5 mph - N/A   Clear
3:15 AM 46.4 °F 45.2 °F 39.2 °F 76% 30.00 in 10.0 mi WSW 3.5 mph - N/A   Clear
3:34 AM 46.4 °F 43.5 °F 39.2 °F 76% 30.01 in 10.0 mi West 5.8 mph - N/A   Clear
3:54 AM 46.4 °F - 39.2 °F 76% 30.01 in 10.0 mi Calm Calm - N/A   Clear
4:15 AM 44.6 °F - 39.2 °F 81% 30.01 in 10.0 mi Calm Calm - N/A   Clear
4:34 AM 44.6 °F - 39.2 °F 81% 30.02 in 10.0 mi Calm Calm - N/A   Clear
4:54 AM 44.6 °F 42.2 °F 39.2 °F 81% 30.03 in 10.0 mi West 4.6 mph - N/A   Clear
5:14 AM 44.6 °F 43.1 °F 39.2 °F 81% 30.04 in 10.0 mi West 3.5 mph - N/A   Clear
5:54 AM 46.4 °F 45.2 °F 39.2 °F 76% 30.04 in 10.0 mi West 3.5 mph - N/A   Clear
6:14 AM 44.6 °F - 39.2 °F 81% 30.05 in 10.0 mi Calm Calm - N/A   Clear
6:34 AM 44.6 °F - 39.2 °F 81% 30.05 in 10.0 mi Calm Calm - N/A   Clear
6:54 AM 44.6 °F - 39.2 °F 81% 30.06 in 10.0 mi Calm Calm - N/A   Clear
7:14 AM 44.6 °F - 41.0 °F 87% 30.06 in 10.0 mi Calm Calm - N/A   Clear
7:35 AM 44.6 °F - 41.0 °F 87% 30.08 in 10.0 mi Calm Calm - N/A   Clear
7:54 AM 44.6 °F 43.1 °F 41.0 °F 87% 30.09 in 10.0 mi WSW 3.5 mph - N/A   Clear
8:14 AM 46.4 °F 44.3 °F 42.8 °F 87% 30.09 in 10.0 mi WSW 4.6 mph - N/A   Clear
8:35 AM 48.2 °F - 42.8 °F 82% 30.09 in 10.0 mi WSW 4.6 mph - N/A   Clear
8:54 AM 50.0 °F - 42.8 °F 76% 30.10 in 10.0 mi WSW 4.6 mph - N/A   Clear
9:14 AM 51.8 °F - 42.8 °F 71% 30.10 in 10.0 mi WSW 4.6 mph - N/A   Clear
9:35 AM 51.8 °F - 44.6 °F 76% 30.10 in 10.0 mi WSW 4.6 mph - N/A   Clear
9:54 AM 53.6 °F - 42.8 °F 67% 30.11 in 10.0 mi WSW 4.6 mph - N/A   Clear
10:14 AM 55.4 °F - 42.8 °F 63% 30.11 in 10.0 mi WSW 3.5 mph - N/A   Clear
10:54 AM 57.2 °F - 42.8 °F 59% 30.11 in 10.0 mi West 3.5 mph - N/A   Clear
11:34 AM 59.0 °F - 41.0 °F 51% 30.11 in 10.0 mi SSE 5.8 mph - N/A   Clear
11:54 AM 59.0 °F - 42.8 °F 55% 30.11 in 10.0 mi South 4.6 mph - N/A   Clear
12:15 PM 60.8 °F - 42.8 °F 52% 30.12 in 10.0 mi South 8.1 mph - N/A   Scattered Clouds
12:34 PM 60.8 °F - 44.6 °F 55% 30.11 in 10.0 mi South 9.2 mph - N/A   Scattered Clouds
12:54 PM 60.8 °F - 44.6 °F 55% 30.11 in 10.0 mi SSE 10.4 mph - N/A   Scattered Clouds
1:14 PM 62.6 °F - 44.6 °F 52% 30.11 in 10.0 mi South 10.4 mph - N/A   Scattered Clouds
1:34 PM 60.8 °F - 44.6 °F 55% 30.10 in 10.0 mi SSE 10.4 mph - N/A   Clear
1:55 PM 62.6 °F - 44.6 °F 52% 30.09 in 10.0 mi South 12.7 mph - N/A   Scattered Clouds
2:14 PM 64.4 °F - 44.6 °F 49% 30.09 in 10.0 mi SE 10.4 mph - N/A   Clear
2:34 PM 64.4 °F - 42.8 °F 45% 30.08 in 10.0 mi SSE 11.5 mph 17.3 mph N/A   Clear
2:55 PM 64.4 °F - 44.6 °F 49% 30.08 in 10.0 mi South 11.5 mph - N/A   Clear
3:14 PM 64.4 °F - 42.8 °F 45% 30.07 in 10.0 mi SSE 13.8 mph - N/A   Clear
3:34 PM 64.4 °F - 41.0 °F 42% 30.07 in 10.0 mi South 16.1 mph - N/A   Clear
3:55 PM 64.4 °F - 39.2 °F 40% 30.06 in 10.0 mi South 16.1 mph - N/A   Clear
4:14 PM 66.2 °F - 41.0 °F 40% 30.06 in 10.0 mi South 19.6 mph 23.0 mph N/A   Clear
4:34 PM 66.2 °F - 39.2 °F 37% 30.06 in 10.0 mi South 13.8 mph 20.7 mph N/A   Clear
4:55 PM 66.2 °F - 39.2 °F 37% 30.05 in 10.0 mi South 15.0 mph - N/A   Clear
5:14 PM 66.2 °F - 39.2 °F 37% 30.05 in 10.0 mi South 15.0 mph - N/A   Clear
5:34 PM 66.2 °F - 41.0 °F 40% 30.04 in 10.0 mi South 13.8 mph 20.7 mph N/A   Clear
5:54 PM 66.2 °F - 41.0 °F 40% 30.04 in 10.0 mi South 15.0 mph - N/A   Clear
6:14 PM 66.2 °F - 39.2 °F 37% 30.04 in 10.0 mi South 16.1 mph - N/A   Clear
6:34 PM 64.4 °F - 39.2 °F 40% 30.03 in 10.0 mi South 17.3 mph 20.7 mph N/A   Clear
6:54 PM 64.4 °F - 39.2 °F 40% 30.02 in 10.0 mi South 12.7 mph - N/A   Clear
7:14 PM 64.4 °F - 39.2 °F 40% 30.01 in 10.0 mi South 17.3 mph 23.0 mph N/A   Clear
7:35 PM 64.4 °F - 39.2 °F 40% 30.01 in 10.0 mi South 16.1 mph - N/A   Clear
7:54 PM 64.4 °F - 39.2 °F 40% 30.01 in 10.0 mi South 19.6 mph - N/A   Clear
8:14 PM 64.4 °F - 42.8 °F 45% 30.01 in 10.0 mi South 17.3 mph - N/A   Clear
8:35 PM 64.4 °F - 42.8 °F 45% 30.01 in 10.0 mi South 18.4 mph - N/A   Clear
8:54 PM 66.2 °F - 39.2 °F 37% 30.01 in 10.0 mi South 21.9 mph - N/A   Clear
9:14 PM 66.2 °F - 41.0 °F 40% 30.02 in 10.0 mi South 19.6 mph - N/A   Scattered Clouds
9:35 PM 64.4 °F - 42.8 °F 45% 30.02 in 10.0 mi South 20.7 mph 24.2 mph N/A   Scattered Clouds
9:54 PM 64.4 °F - 44.6 °F 49% 30.01 in 10.0 mi South 19.6 mph - N/A   Clear
10:14 PM 64.4 °F - 44.6 °F 49% 30.01 in 10.0 mi South 20.7 mph - N/A   Clear
10:34 PM 64.4 °F - 44.6 °F 49% 30.00 in 10.0 mi South 23.0 mph 29.9 mph N/A   Clear
10:54 PM 64.4 °F - 44.6 °F 49% 30.00 in 10.0 mi South 25.3 mph 31.1 mph N/A   Clear
11:14 PM 64.4 °F - 46.4 °F 52% 30.00 in 10.0 mi South 25.3 mph 31.1 mph N/A   Clear
11:34 PM 64.4 °F - 46.4 °F 52% 30.01 in 10.0 mi South 19.6 mph 27.6 mph N/A   Mostly Cloudy
11:54 PM 64.4 °F - 46.4 °F 52% 30.01 in 10.0 mi South 23.0 mph 28.8 mph N/A   Overcast